Satellite-Ground Cal/Val Region Overpasses Predictions

Prediction of Satellite NPP Overpassing Cal/Val Region: PacNW

Region Location: (Latitude: 10.00, Longitude: 139.50) to (Latitude: 22.70, Longitude: 165.60).

Table of predicted overpasses for the next 14.0 days since TLE Epoch: 4/27/2018
Interval Starting Time Starting Location Ending Time Ending Location
1 04/28/2018 03:23:35 ( 10.04, 148.79) 04/28/2018 03:27:10 ( 22.67, 145.78)
2 04/28/2018 15:55:28 ( 22.68, 146.03) 04/28/2018 15:59:04 ( 10.01, 143.01)
3 04/29/2018 03:04:34 ( 10.06, 153.54) 04/29/2018 03:08:09 ( 22.68, 150.54)
4 04/29/2018 15:36:26 ( 22.67, 150.78) 04/29/2018 15:40:01 ( 10.05, 147.78)
5 04/30/2018 02:45:31 ( 10.01, 158.31) 04/30/2018 02:49:07 ( 22.69, 155.29)
6 04/30/2018 15:17:25 ( 22.66, 155.54) 04/30/2018 15:21:00 ( 10.04, 152.54)
7 05/01/2018 02:26:30 ( 10.03, 163.06) 05/01/2018 02:30:05 ( 22.65, 160.06)
8 05/01/2018 14:58:23 ( 22.64, 160.29) 05/01/2018 15:01:58 ( 10.02, 157.29)
9 05/02/2018 02:10:09 ( 19.50, 165.60) 05/02/2018 02:11:03 ( 22.67, 164.81)
10 05/02/2018 03:48:58 ( 10.05, 142.44) 05/02/2018 03:52:28 ( 22.38, 139.51)
11 05/02/2018 14:39:21 ( 22.69, 165.06) 05/02/2018 14:42:57 ( 10.01, 162.04)
12 05/02/2018 16:20:51 ( 22.68, 139.69) 05/02/2018 16:21:03 ( 21.98, 139.51)
13 05/03/2018 03:29:56 ( 10.00, 147.21) 05/03/2018 03:33:32 ( 22.69, 144.19)
14 05/03/2018 16:01:50 ( 22.67, 144.44) 05/03/2018 16:05:25 ( 10.05, 141.44)
15 05/04/2018 03:10:54 ( 10.02, 151.96) 05/04/2018 03:14:29 ( 22.64, 148.96)
16 05/04/2018 15:42:48 ( 22.65, 149.19) 05/04/2018 15:46:23 ( 10.03, 146.19)
17 05/05/2018 02:51:53 ( 10.04, 156.72) 05/05/2018 02:55:28 ( 22.66, 153.71)
18 05/05/2018 15:23:46 ( 22.70, 153.96) 05/05/2018 15:27:22 ( 10.02, 150.94)
19 05/06/2018 02:32:51 ( 10.05, 161.47) 05/06/2018 02:36:26 ( 22.67, 158.47)
20 05/06/2018 15:04:44 ( 22.68, 158.72) 05/06/2018 15:08:20 ( 10.00, 155.70)
21 05/07/2018 02:14:37 ( 12.83, 165.59) 05/07/2018 02:17:25 ( 22.69, 163.22)
22 05/07/2018 03:55:19 ( 10.02, 140.86) 05/07/2018 03:56:58 ( 15.83, 139.51)
23 05/07/2018 14:45:43 ( 22.66, 163.47) 05/07/2018 14:49:18 ( 10.05, 160.47)
24 05/08/2018 03:36:17 ( 10.03, 145.62) 05/08/2018 03:39:52 ( 22.66, 142.61)
25 05/08/2018 14:29:48 ( 11.67, 165.60) 05/08/2018 14:30:16 ( 10.03, 165.22)
26 05/08/2018 16:08:11 ( 22.64, 142.85) 05/08/2018 16:11:46 ( 10.02, 139.84)
27 05/09/2018 03:17:16 ( 10.05, 150.37) 05/09/2018 03:20:51 ( 22.67, 147.37)
28 05/09/2018 15:49:09 ( 22.69, 147.62) 05/09/2018 15:52:45 ( 10.01, 144.60)
29 05/10/2018 02:58:14 ( 10.01, 155.14) 05/10/2018 03:01:50 ( 22.69, 152.12)
30 05/10/2018 15:30:07 ( 22.67, 152.37) 05/10/2018 15:33:42 ( 10.05, 149.37)
31 05/11/2018 02:39:12 ( 10.03, 159.89) 05/11/2018 02:42:47 ( 22.65, 156.89)


NCC Satellite Cal/Val Overpasses Prediction Service
